#timestamp,LO_Frequency,Hit,StdDev 
1589223615.0,286046998.3,N
1589223615.9,286046998.3,N
1589223635.8,286046997.6,N
1589223655.6,286046997.6,N
1589223675.4,286046996.9,N
1589223695.3,286046999.3,N
1589223715.1,286047002.3,N
1589223735.9,286047002.2,N
1589223755.7,286047001.1,N
1589223775.5,286047001.0,N
1589223795.4,286047000.8,N
1589223815.2,286047000.8,N
1589223835.1,286047000.5,N
1589223836.0,286047000.5,N
1589223855.8,286047000.3,N
1589223875.6,286047011.9,Y
1589223895.5,286047001.9,P
1589223915.3,286047003.6,P
1589223935.2,286047003.2,N
1589223955.9,286047001.9,N
1589223975.7,286047004.3,Y
1589223995.6,286046996.9,P
1589224015.4,286046999.3,N
1589224035.2,286047000.9,N
1589224055.1,286047002.3,N
1589224056.0,286047002.3,N
1589224075.8,286046999.7,N
1589224095.7,286047000.1,N
1589224115.5,286047000.8,N
1589224135.3,286047000.6,N
1589224155.2,286046998.8,N
1589224175.0,286046996.8,N
1589224175.9,286046996.8,N
1589224195.8,286046997.0,N
1589224215.6,286046996.6,N
1589224235.4,286046996.6,N
1589224255.3,286047001.1,N
1589224275.1,286046998.5,N
1589224295.8,286046996.6,N
1589224315.7,286046998.2,N
1589224335.5,286047000.0,N
1589224355.4,286047001.3,N
1589224375.2,286047006.0,N
1589224395.0,286047006.4,N
1589224395.9,286047006.4,N
1589224415.8,286047004.6,N
1589224435.6,286047001.7,N
1589224455.5,286047007.1,N
1589224475.3,286047006.4,N
1589224495.1,286047006.9,N
1589224515.9,286047011.9,Y
1589224535.7,286047003.5,P
1589224555.5,286047004.2,P
1589224575.4,286047002.1,N
1589224595.2,286047001.7,N
1589224615.1,286047004.3,Y
1589224616.0,286047004.3,P
1589224635.8,286047002.7,N
1589224655.6,286047002.4,N
1589224675.5,286046999.7,N
1589224695.3,286047001.1,N
1589224715.2,286046999.5,N
1589224735.9,286046999.4,N
1589224755.7,286046997.1,N
1589224775.6,286046997.0,N
1589224795.4,286046997.1,N
1589224815.2,286046995.2,N
1589224835.1,286046999.2,N
1589224836.0,286046999.2,N
1589224855.8,286046997.9,N
1589224875.7,286046997.4,N
1589224895.5,286046997.2,N
1589224915.3,286046995.2,N
1589224935.2,286046995.1,N
1589224955.0,286046995.1,N
1589224955.9,286046995.1,N
1589224975.8,286046993.6,N
1589224995.6,286046993.5,N
1589225015.4,286046997.2,N
1589225035.3,286046996.8,N
1589225055.1,286046997.3,N
1589225075.9,286047002.1,N
1589225095.7,286047001.6,N
1589225115.5,286046998.1,N
1589225135.4,286046999.9,N
1589225155.2,286047002.8,N
1589225175.0,286047000.2,N
1589225175.9,286047000.2,N
1589225195.8,286047000.6,N
1589225215.6,286047000.3,N
1589225235.5,286046999.0,N
1589225255.3,286046995.1,N
1589225275.1,286046995.3,N
1589225295.9,286046997.9,N
1589225315.7,286046996.6,N
1589225335.6,286046997.7,N
1589225355.4,286046997.2,N
1589225375.2,286046997.6,N
1589225395.1,286046996.1,N
1589225396.0,286046996.1,N
1589225415.8,286046995.5,N
1589225435.6,286046994.7,N
1589225455.5,286046998.3,N
1589225475.3,286047002.5,N
1589225495.2,286046999.8,N
1589225515.9,286047001.0,N
1589225535.7,286046999.1,N
1589225555.6,286046998.8,N
1589225575.4,286046998.1,N
1589225595.3,286046997.0,N
1589225615.1,286046999.4,N
1589225616.0,286046999.4,N
1589225635.8,286047000.5,N
1589225655.7,286046998.2,N
1589225675.5,286046998.3,N
1589225695.3,286046997.2,N
1589225715.2,286046994.9,N
1589225735.0,286046996.9,N
1589225735.9,286046996.9,N
1589225755.8,286046996.7,N
1589225775.6,286046997.2,N
1589225795.4,286046996.5,N
1589225815.3,286047001.2,N
1589225835.1,286046998.1,N
1589225855.9,286047000.1,N
1589225875.7,286046999.8,N
1589225895.5,286047001.2,N
1589225915.4,286047000.0,N
1589225935.2,286047000.4,N
1589225955.0,286047000.2,N
1589225956.0,286047000.2,N
1589225975.8,286046998.5,N
1589225995.6,286046998.3,N
1589226015.5,286046998.4,N
1589226035.3,286046999.4,N
1589226055.1,286046997.0,N
1589226075.9,286046997.0,N
1589226095.7,286047000.4,N
1589226115.6,286047000.5,N
1589226135.4,286046999.9,N
1589226155.2,286047002.2,N
1589226175.1,286047003.7,N
1589226176.0,286047003.7,N
1589226195.8,286047002.8,N
1589226215.6,286046997.5,N
1589226235.5,286046994.0,N
1589226255.3,286046996.2,N
1589226275.2,286046993.5,N
1589226295.9,286046996.0,N
1589226315.7,286046993.7,N
1589226335.6,286046993.1,N
1589226355.4,286046990.2,Y
1589226375.3,286046992.2,P
1589226395.1,286046994.1,N
1589226415.8,286046995.7,N
1589226435.7,286046995.0,N
1589226455.5,286046997.2,N
1589226475.4,286046998.7,N
1589226495.2,286047000.2,N
1589226515.0,286047000.1,N
1589226515.9,286047000.1,N
1589226535.8,286047001.2,N
1589226555.6,286046999.0,N
1589226575.4,286046996.9,N
1589226595.3,286046999.1,N
1589226615.1,286047002.4,N
1589226635.9,286047002.7,N
1589226655.7,286047002.3,N
1589226675.5,286047000.3,N
1589226695.4,286047002.2,N
1589226715.2,286047000.5,N
1589226735.1,286046996.6,N
1589226736.0,286046996.6,N
1589226755.8,286046996.5,N
1589226775.6,286047001.1,N
1589226795.5,286046999.8,N
1589226815.3,286047000.4,N
1589226835.1,286047000.2,N
1589226855.9,286047001.9,N
1589226875.7,286047004.3,N
1589226895.6,286047002.7,N
1589226915.4,286047002.8,N
1589226935.2,286047000.5,N
1589226955.1,286047002.4,N
1589226956.0,286047002.4,N
1589226975.8,286047002.5,N
1589226995.7,286047001.5,N
1589227015.5,286047002.8,N
1589227035.3,286047002.8,N
1589227055.2,286047000.0,N
1589227075.0,286046999.2,N
1589227075.9,286046999.2,N
1589227095.8,286046999.1,N
1589227115.6,286046996.5,N
1589227135.4,286047000.7,N
1589227155.3,286047000.8,N
1589227175.1,286046998.5,N
1589227195.9,286047002.5,N
